Location: Bishop's University Astronomical Observatory
(45.3661°N, 71.8475°W)
Time: 17:59:18
(UTC-05:00)

CZ-4C R/B - Visible Passes

Search period start: 11 December 2017 00:00
Search period end: 21 December 2017 00:00
Orbit: 703 x 1300 km, 63.4° (Epoch: 10 December)

Date Brightness Start Highest point End Pass type
(mag) Time Alt. Az. Time Alt. Az. Time Alt. Az.
11 Dec 3.9 05:15:11 10° S 05:19:46 32° ESE 05:24:53 10° NE visible
12 Dec 5.3 04:05:10 10° ESE 04:05:47 10° ESE 04:06:25 10° E visible
12 Dec 2.4 05:47:43 10° SSW 05:52:54 73° SE 05:58:54 10° NE visible
13 Dec 4.2 04:34:13 10° SSE 04:38:29 26° ESE 04:43:11 10° ENE visible
13 Dec 2.3 06:21:15 10° SW 06:26:29 56° NW 06:32:32 10° NNE visible
14 Dec 2.6 05:06:26 10° SSW 05:11:31 60° ESE 05:17:23 10° NE visible
15 Dec 4.4 03:53:48 12° SSE 03:57:14 21° ESE 04:01:24 10° ENE visible
15 Dec 2.1 05:39:44 10° SW 05:44:59 67° NW 05:51:05 10° NE visible
16 Dec 2.9 04:28:03 31° S 04:30:10 48° ESE 04:35:50 10° NE visible
16 Dec 2.8 06:13:52 10° WSW 06:18:52 36° NW 06:24:36 10° NNE visible
17 Dec 4.6 03:16:32 16° E 03:16:32 16° E 03:19:27 10° ENE visible
17 Dec 2.0 05:01:47 45° SW 05:03:31 79° NW 05:09:37 10° NE visible
18 Dec 3.5 03:49:58 35° E 03:49:58 35° E 03:54:15 10° NE visible
18 Dec 2.6 05:35:12 30° W 05:37:18 42° NW 05:43:10 10° NNE visible
19 Dec 2.5 04:23:11 60° NE 04:23:11 60° NE 04:28:09 10° NE visible
19 Dec 3.4 06:08:25 17° WNW 06:11:28 26° NNW 06:16:41 10° NNE visible
20 Dec 4.7 03:11:02 17° ENE 03:11:02 17° ENE 03:12:37 10° NE visible
20 Dec 2.6 04:56:15 47° NNW 04:56:15 47° NNW 05:01:44 10° NNE visible
20 Dec 3.9 06:41:55 10° WNW 06:45:57 19° NNW 06:50:23 10° NNE visible
